User: anonymous   Login
Location: Red Shale Campground
(45.5700°N, 106.1600°W)
Time: 21:48:13
(UTC-06:00)
Language:

FENGYUN 3A - Orbit

View from above orbital plane
View from above orbital plane
View from above satellite
View from above satellite

Ground track
Ground track

The orbit data is extracted from the following two-line orbital elements,

1 32958U 08026A   16183.71612901  .00000004  00000-0  21633-4 0  9992
2 32958  98.4508 223.1067 0008857 211.2755 148.7889 14.19622721419616
Epoch (UTC): 01 July 2016 17:11:13
Eccentricity: 0.0008857
inclination: 98.4508°
perigee height: 820 km
apogee height: 833 km
right ascension of ascending node: 223.1067°
argument of perigee: 211.2755°
revolutions per day: 14.19622721
mean anomaly at epoch: 148.7889°
orbit number at epoch: 41961

The dashed part of the orbit path shows where the satellite is in the earth's shadow,  

DLR